Find Starlink 32388

NORAD ID: 62144 Int'l Des: 2024-224 Owner: SPXS Country: US Constellation: starlink operational
LEOCIRCULAR

リアルタイム位置

3D地球を読み込み中...

Starlink 32388について

説明を読み込み中...

次回通過

Passes for default location (London). Set your location on the main map for personalized predictions.

高度履歴

Loading altitude history...

軌道要素

1 62144U 24224F 26126.55733445 .00024017 00000-0 87947-3 0 9996
2 62144 42.9974 198.7745 0002482 286.6890 73.3689 15.27577525 81247
Epoch: May 6, 2026 • Age: 14 hours

現在のステータス

高度 486.6 km
速度 7.63 km/s
衛星直下点 39.64°N, 24.54°W
打ち上げ日 Nov 30, 2024
運用期間 1.4 years
タイプ internet

技術仕様

分類 Payload
質量 730.00 kg
乾燥質量 700.00 kg
総質量 730.00 kg
長さ 0.30 m
直径 4.10 m
スパン 29.00 m
形状 Box + pan
製造者 SPXS
バスタイプ Starlink V2M
フェーズステータス In Orbit
所有者/国 SPXS/US

Most Searched